Rifle, CO

4:58 AM MST on January 19, 2018 (GMT -0700)
Garfield County Regional

Weather History for KRIL - September, 2013

Change the Weather History Date:

Monday, September 2, 2013

  Actual Average Record
Temperature  
Mean Temperature 74 °F 66 °F  
Max Temperature 92 °F 84 °F 97 °F (1931)
Min Temperature 56 °F 49 °F 28 °F (1959)
Degree Days  
Heating Degree Days 0 1  
Month to date heating degree days 0 2  
Since 1 July heating degree days 0 9  
Cooling Degree Days 9 2  
Month to date cooling degree days 17 4  
Year to date cooling degree days 723 520  
Growing Degree Days 24 (Base 50)    
Moisture  
Dew Point 47 °F    
Average Humidity 48    
Maximum Humidity 77    
Minimum Humidity 18    
Precipitation  
Precipitation 0.00 in 0.04 in 0.29 in (1961)
Month to date precipitation 0.00 0.09  
Year to date precipitation 5.09 9.06  
Sea Level Pressure  
Sea Level Pressure 29.94 in    
Wind  
Wind Speed 6 mph (West)    
Max Wind Speed 21 mph    
Max Gust Speed 25 mph    
Visibility 10 miles    
Events      
T = Trace of Precipitation, MM = Missing Value Source: NWS Daily Summary

Daily Weather History Graph

Daily Weather History Graph

Search for Another Location

Airport or City:

Trip Planner

Search our weather history database for the weather conditions in past years. The results will help you decide how hot, cold, wet, or windy it might be!

Date:

Astronomy

Sep. 02, 2013 Rise Set
Actual Time 6:40 AM MDT 7:39 PM MDT
Civil Twilight 6:12 AM MDT 8:07 PM MDT
Nautical Twilight 5:40 AM MDT 8:39 PM MDT
Astronomical Twilight 5:06 AM MDT 9:13 PM MDT
Moon 4:00 AM MDT (9/2) 5:54 PM MDT (9/2)
Length of Visible Light 13h 54m
Length of Day
12h 59m
Waning Crescent, 7% of the Moon is Illuminated
Sep 2
Waning Crescent
Sep 5
New
Sep 12
First Quarter
Sep 19
Full
Sep 26
Last Quarter

Hourly Weather History & Observations

Time (MDT) Temp. Dew Point Humidity Pressure Visibility Wind Dir Wind Speed Gust Speed Precip Events Conditions
12:53 AM 68.0 °F 48.0 °F 49% 29.93 in 10.0 mi East 3.5 mph - N/A   Clear
1:53 AM 71.1 °F 48.0 °F 44% 29.92 in 10.0 mi Variable 4.6 mph - N/A   Clear
2:53 AM 66.0 °F 48.9 °F 54% 29.94 in 10.0 mi Calm Calm - N/A   Clear
3:53 AM 61.0 °F 48.9 °F 64% 29.97 in 10.0 mi Calm Calm - N/A   Partly Cloudy
4:53 AM 57.9 °F 50.0 °F 75% 29.99 in 10.0 mi WNW 3.5 mph - N/A   Clear
5:53 AM 60.1 °F 48.9 °F 67% 30.00 in 10.0 mi Calm Calm - N/A   Clear
6:53 AM 57.0 °F 48.0 °F 72% 30.02 in 10.0 mi Calm Calm - N/A   Clear
7:53 AM 60.1 °F 48.0 °F 64% 30.04 in 10.0 mi East 3.5 mph - N/A   Clear
8:53 AM 66.9 °F 50.0 °F 54% 30.04 in 10.0 mi North 4.6 mph - N/A   Clear
9:53 AM 73.0 °F 50.0 °F 44% 30.02 in 10.0 mi Calm Calm - N/A   Clear
10:53 AM 79.0 °F 50.0 °F 36% 30.01 in 10.0 mi Variable 3.5 mph - N/A   Clear
11:53 AM 82.9 °F 48.0 °F 29% 29.99 in 10.0 mi West 9.2 mph - N/A   Clear
12:53 PM 86.0 °F 48.0 °F 27% 29.94 in 10.0 mi West 11.5 mph - N/A   Clear
1:53 PM 87.1 °F 48.9 °F 27% 29.90 in 10.0 mi NW 5.8 mph - N/A   Clear
2:53 PM 88.0 °F 46.9 °F 24% 29.89 in 10.0 mi West 9.2 mph 16.1 mph N/A   Clear
3:53 PM 90.0 °F 45.0 °F 21% 29.86 in 10.0 mi West 16.1 mph - N/A   Clear
4:53 PM 91.0 °F 42.1 °F 18% 29.86 in 10.0 mi SSW 9.2 mph - N/A   Partly Cloudy
5:53 PM 90.0 °F 45.0 °F 21% 29.84 in 10.0 mi West 15.0 mph 25.3 mph N/A   Clear
6:53 PM 87.1 °F 44.1 °F 22% 29.86 in 10.0 mi West 18.4 mph 21.9 mph N/A   Clear
7:53 PM 82.0 °F 44.1 °F 26% 29.88 in 10.0 mi West 10.4 mph - N/A   Clear
8:53 PM 78.1 °F 46.0 °F 32% 29.89 in 10.0 mi ESE 4.6 mph - N/A   Clear
9:53 PM 75.0 °F 46.9 °F 37% 29.91 in 10.0 mi East 9.2 mph - N/A   Clear
10:53 PM 72.0 °F 46.9 °F 41% 29.91 in 10.0 mi East 5.8 mph - N/A   Clear
11:53 PM 69.1 °F 46.9 °F 45% 29.93 in 10.0 mi East 4.6 mph - N/A   Scattered Clouds